Le nostre stazioni meteo in Italia

Pubblicità
Il mio iltempo24.it
Drumnadrochit, Gran Bretagna (99132): Temperatura & dewpoint: 17.08.2017 09:00:00 - 23.08.2017 09:00:00 (BST)Drumnadrochit, Gran Bretagna (99132): visibility: 17.08.2017 09:00:00 - 23.08.2017 09:00:00 (BST)Drumnadrochit, Gran Bretagna (99132): precipitazioni: 17.08.2017 09:00:00 - 23.08.2017 09:00:00 (BST)
Data & Tempo tt [°C] td [°C] vv [km] rr [mm]
23.08.2017 09:00:00 - - - 2,0
23.08.2017 08:00:00 15,5 15,4 - 1,2
23.08.2017 07:00:00 15,2 15,2 - 0,2
23.08.2017 06:00:00 15,0 14,9 - 0,2
23.08.2017 05:00:00 14,9 14,7 - 0,6
23.08.2017 04:00:00 14,9 14,6 - 0,8
23.08.2017 03:00:00 15,3 14,4 - 0,0
23.08.2017 02:00:00 14,6 14,2 - 0,0
23.08.2017 01:00:00 14,4 14,2 - 0,0
23.08.2017 00:00:00 13,6 13,4 - 0,0
22.08.2017 23:00:00 13,4 13,2 - 0,0
22.08.2017 22:00:00 13,9 13,6 - 0,0
22.08.2017 21:00:00 14,4 13,6 - 0,0
22.08.2017 20:00:00 16,6 15,2 - 0,0
22.08.2017 19:00:00 19,6 15,0 - 0,0
22.08.2017 18:00:00 19,4 14,9 - 0,0
22.08.2017 17:00:00 19,8 14,9 - 0,0
22.08.2017 16:00:00 19,9 16,0 - 0,0
22.08.2017 15:00:00 18,7 14,3 - 0,0
22.08.2017 14:00:00 18,5 15,4 - 0,2
22.08.2017 13:00:00 16,7 14,6 - 0,4
22.08.2017 12:00:00 16,4 14,1 - 0,0
22.08.2017 11:00:00 15,9 14,2 - 0,0
22.08.2017 10:00:00 14,4 12,9 - 0,0
22.08.2017 09:00:00 13,2 12,8 - 0,4
22.08.2017 08:00:00 12,6 12,5 - 1,0
22.08.2017 07:00:00 12,3 12,2 - 0,2
22.08.2017 06:00:00 12,1 11,9 - 0,2
22.08.2017 05:00:00 12,2 12,2 - 0,0
22.08.2017 04:00:00 11,0 10,9 - 0,0
22.08.2017 03:00:00 11,5 11,3 - 0,0
22.08.2017 02:00:00 11,6 11,5 - 0,0
22.08.2017 01:00:00 11,3 10,9 - 0,0
22.08.2017 00:00:00 12,0 11,6 - 0,0
21.08.2017 23:00:00 12,6 11,9 - 0,0
21.08.2017 22:00:00 13,9 12,5 - 0,0
21.08.2017 21:00:00 14,1 12,7 - 0,0
21.08.2017 20:00:00 14,7 12,6 - 0,0
21.08.2017 19:00:00 15,6 12,3 - 0,0
21.08.2017 18:00:00 16,4 11,5 - 0,0
21.08.2017 17:00:00 16,4 11,3 - 0,0
21.08.2017 16:00:00 16,7 10,9 - 0,0
21.08.2017 15:00:00 16,8 11,0 - 0,0
21.08.2017 14:00:00 17,0 10,6 - -
21.08.2017 13:00:00 16,2 10,7 - 0,0
21.08.2017 12:00:00 15,0 9,7 - 0,0
21.08.2017 11:00:00 14,1 9,7 - 0,0
21.08.2017 10:00:00 13,1 9,5 - 0,0
21.08.2017 09:00:00 13,3 10,3 - -
21.08.2017 08:00:00 11,9 10,7 - 0,0
21.08.2017 07:00:00 10,4 10,4 - 0,0
21.08.2017 06:00:00 9,8 9,8 - 0,0
21.08.2017 05:00:00 9,4 9,3 - 0,0
21.08.2017 04:00:00 8,3 8,2 - 0,0
21.08.2017 03:00:00 7,1 6,9 - 0,0
21.08.2017 02:00:00 8,3 8,2 - 0,0
21.08.2017 01:00:00 7,4 7,2 - 0,0
21.08.2017 00:00:00 8,4 7,9 - 0,0
20.08.2017 23:00:00 8,6 7,9 - 0,0
20.08.2017 22:00:00 9,5 9,0 - 0,0
20.08.2017 21:00:00 11,3 10,4 - 0,0
20.08.2017 20:00:00 13,1 10,8 - 0,0
20.08.2017 19:00:00 16,3 12,5 - 0,0
20.08.2017 18:00:00 16,6 9,8 - 0,0
20.08.2017 17:00:00 17,4 8,3 - 0,0
20.08.2017 16:00:00 16,5 10,8 - 0,0
20.08.2017 15:00:00 17,2 8,7 - 0,0
20.08.2017 14:00:00 16,7 8,4 - 0,0
20.08.2017 13:00:00 16,3 8,9 - 0,0
20.08.2017 12:00:00 16,2 7,9 - 0,0
20.08.2017 11:00:00 15,6 9,6 - 0,0
20.08.2017 10:00:00 14,7 9,4 - 0,0
20.08.2017 09:00:00 13,8 9,5 - 0,0
20.08.2017 08:00:00 11,1 9,6 - 0,0
20.08.2017 07:00:00 9,9 9,5 - 0,0
20.08.2017 06:00:00 9,0 8,0 - 0,0
20.08.2017 05:00:00 9,3 9,1 - 0,0
20.08.2017 04:00:00 9,0 8,7 - 0,2
20.08.2017 03:00:00 10,0 9,5 - 0,0
20.08.2017 02:00:00 10,9 10,7 - 0,0
20.08.2017 01:00:00 10,6 10,6 - 0,0
20.08.2017 00:00:00 10,2 8,9 - 0,0
19.08.2017 23:00:00 12,4 10,3 - 0,0
19.08.2017 22:00:00 12,5 10,2 - 0,0
19.08.2017 21:00:00 13,3 10,6 - 0,0
19.08.2017 20:00:00 14,0 11,1 - 0,0
19.08.2017 19:00:00 14,3 11,6 - 0,8
19.08.2017 18:00:00 16,1 11,0 - 0,0
19.08.2017 17:00:00 15,5 11,0 - 0,0
19.08.2017 16:00:00 16,8 12,1 - 0,0
19.08.2017 15:00:00 17,1 13,0 - 1,2
19.08.2017 14:00:00 15,4 11,9 - 0,0
19.08.2017 13:00:00 15,7 10,5 - 0,2
19.08.2017 12:00:00 15,7 10,6 - 0,2
19.08.2017 11:00:00 15,5 10,2 - 0,0
19.08.2017 10:00:00 14,7 10,4 - 0,0
19.08.2017 09:00:00 13,9 10,8 - 0,0
19.08.2017 08:00:00 12,2 9,7 - 0,0
19.08.2017 07:00:00 11,8 9,0 - 0,0
19.08.2017 06:00:00 11,5 8,3 - 0,0
19.08.2017 05:00:00 11,7 8,4 - 0,0
19.08.2017 04:00:00 12,0 8,6 - 0,0
19.08.2017 03:00:00 11,6 9,0 - 0,0
19.08.2017 02:00:00 12,0 9,8 - -
19.08.2017 01:00:00 12,9 10,0 - 0,0
19.08.2017 00:00:00 13,1 10,1 - 0,2
18.08.2017 23:00:00 12,4 10,9 - 0,0
18.08.2017 22:00:00 12,3 10,6 - 0,0
18.08.2017 21:00:00 13,5 10,0 - 0,0
18.08.2017 20:00:00 13,4 11,6 - 0,0
18.08.2017 19:00:00 13,9 10,9 - 0,0
18.08.2017 18:00:00 14,3 8,7 - 0,0
18.08.2017 17:00:00 15,9 8,9 - 0,0
18.08.2017 16:00:00 14,8 9,1 - -
18.08.2017 15:00:00 15,2 8,5 - 0,0
18.08.2017 14:00:00 15,7 9,7 - -
18.08.2017 13:00:00 13,7 9,5 - 0,0
18.08.2017 12:00:00 12,8 9,6 - 0,0
18.08.2017 11:00:00 12,5 9,1 - 0,0
18.08.2017 10:00:00 12,1 10,1 - 0,2
18.08.2017 09:00:00 12,0 10,7 - 1,4
18.08.2017 08:00:00 12,0 11,3 - 0,6
18.08.2017 07:00:00 10,0 10,0 - 0,0
18.08.2017 06:00:00 9,8 9,8 - 0,0
18.08.2017 05:00:00 9,4 9,3 - 0,0
18.08.2017 04:00:00 9,7 9,4 - 0,0
18.08.2017 03:00:00 9,9 9,8 - 0,0
18.08.2017 02:00:00 9,4 9,3 - 0,0
18.08.2017 01:00:00 8,5 8,1 - 0,0
18.08.2017 00:00:00 8,7 7,6 - 0,0
17.08.2017 23:00:00 11,5 8,5 - 0,0
17.08.2017 22:00:00 12,7 9,4 - 0,0
17.08.2017 21:00:00 11,6 9,3 - 0,0
17.08.2017 20:00:00 14,9 10,4 - 0,0
17.08.2017 19:00:00 16,2 10,8 - 0,0
17.08.2017 18:00:00 16,0 11,6 - 0,0
17.08.2017 17:00:00 14,7 12,0 - 0,2
17.08.2017 16:00:00 15,0 11,6 - -
17.08.2017 15:00:00 16,8 11,9 - 0,0
17.08.2017 14:00:00 17,6 12,3 - 0,0
17.08.2017 13:00:00 17,0 12,1 - 0,0
17.08.2017 12:00:00 17,3 12,2 - 0,0
17.08.2017 11:00:00 15,8 11,2 - 0,0
17.08.2017 10:00:00 16,8 11,1 10 0,0
17.08.2017 09:00:00 15,6 10,9 - 0,0

tt = Temperatura
td = dewpoint
vv = visibility
rr = precipitazioni

Stazioni seguenti

WeatherPro
AMSI
MeteoEarth